Regional Weather Roundup
Issued by NWS Wakefield, VA

Home | Current Version | Previous Version | Graphics & Text | Print | Product List | Glossary On
Versions: 1 2 3 4 5 6 7 8 9 10 11 12 13 14 15 16 17 18 19 20 21 22 23 24 25 26 27 28 29 30 31 32 33 34 35 36 37 38 39 40 41 42 43 44 45 46 47 48 49 50
000
ASUS41 KAKQ 271010
RWRAKQ

REGIONAL WEATHER ROUNDUP
NATIONAL WEATHER SERVICE WAKEFIELD VA
500 AM EST SAT DEC 27 2014

Note: "fair" indicates few or no clouds below 12,000 feet with no
significant weather and/or obstructions to visibility. * = Denotes
station may not report precipitation (e.g., rain,snow,etc.),
thunder or fog.

VAZ042-051-052>054-056-271100-
NORTHERN VIRGINIA

CITY           SKY/WX    TMP DP  RH WIND       PRES   REMARKS
WASH NATIONAL  PTCLDY    36  31  82 S6        30.27R
DULLES         CLOUDY    29  28  96 CALM      30.25S
FORT BELVOIR   MOCLDY    30  28  94 CALM      30.27R
QUANTICO       MOCLDY    33  30  88 NW5       30.28R
FREDERICKSBRG* MOCLDY    32  32 100 CALM      30.26S
STAFFORD*      MOCLDY    29  29 100 CALM      30.31R
WARRENTON      MOCLDY    31  31 100 CALM      30.25S
CULPEPER*      CLOUDY    30  30 100 CALM      30.26S
MANASSAS*      CLOUDY    30  30 100 CALM      30.26F
LEESBURG*      PTCLDY    32  32 100 CALM      30.26R
WINCHESTER     CLOUDY    36  28  75 CALM      30.24R
FRONT ROYAL*   PTSUNNY   39  28  65 S3        30.21F
LURAY*         PTSUNNY   36  32  87 SW5       30.25S
$$

VAZ048-049-060>072-079>083-271100-
CENTRAL AND SOUTH CENTRAL VIRGINIA

CITY           SKY/WX    TMP DP  RH WIND       PRES   REMARKS
RICHMOND       PTCLDY    35  30  82 CALM      30.27R
CHESTERFIELD*  SUNNY     28  18  64 CALM      30.27S
PETERSBURG*    CLEAR     29  29  99 CALM      30.27S
HANOVER        PTCLDY    30  28  92 CALM      30.28R FOG
TAPPAHANNOCK*  PTCLDY    34  31  90 CALM      30.28R
QUINTON*       SUNNY     29  28  96 CALM      30.27R
CHARLOTTSVILLE MOCLDY    33  30  88 CALM      30.24S
GORDONSVILLE*  PTSUNNY   31  29  95 CALM      30.24S
ORANGE*        CLOUDY    32  32 100 CALM      30.26F
LOUISA*        MOCLDY    30  28  93 CALM      30.24S
BUMPASS*       PTSUNNY   31  30  95 CALM      30.25S
FARMVILLE*     PTCLDY    32  32 100 CALM      30.24S
CREWE*         SUNNY     32  31  96 CALM      30.25S
FORT PICKETT*  SUNNY     36  33  90 W5        30.26R
CHASE CITY*    SUNNY     35  35 100 CALM      30.26R
CLARKSVILLE*   SUNNY     36  32  87 CALM      30.25R
SOUTH HILL*    CLEAR     35  32  91 CALM      30.32R
LAWRENCEVILLE* SUNNY     36  33  90 CALM      30.25S
EMPORIA*       CLEAR     30  30 100 CALM      30.29R
$$

VAZ088>098-271100-
SOUTHEAST VIRGINIA

CITY           SKY/WX    TMP DP  RH WIND       PRES   REMARKS
NORFOLK        CLEAR     36  33  89 SW7       30.27F
VIRGINIA BEACH CLEAR     37  33  85 W3        30.27F
NORFOLK NAVAL  PTCLDY    42  35  76 S3        30.29S
WEST POINT*    CLEAR     31  29  90 CALM      30.29S
SALUDA*        FAIR      37  34  88 CALM      30.26S
NEWPORT NEWS   CLEAR     34  30  85 CALM      30.28S
LANGLEY AFB    CLEAR     34  33  96 CALM      30.28S
FORT EUSTIS    CLEAR     34  34 100 NE2       30.26S
WILLIAMSBURG*  CLEAR     36  34  93 CALM      30.28S
HR EXEC AP*    SUNNY     28  25  86 CALM      30.30R
FRANKLIN*      CLEAR     30 N/A N/A CALM      30.27F
WAKEFIELD      CLEAR     31  29  92 CALM      30.27S
$$

VAZ020-022-025-037-045-271100-
WEST CENTRAL AND SOUTHWEST VIRGINIA

CITY           SKY/WX    TMP DP  RH WIND       PRES   REMARKS
STAUNTON*      MOCLDY    32  28  85 CALM      30.26S
WAYNESBORO*    PTSUNNY   35  27  73 CALM      30.25R
HOT SPRINGS VA PTCLDY    45   5  20 W12       30.20F
LYNCHBURG      PTCLDY    31  30  96 CALM      30.25F
DANVILLE       PTCLDY    34  30  85 W5        30.28R
SOUTH BOSTON*  SUNNY     30  29  94 CALM      30.27R
MARTINSVILLE   MOCLDY    32  32 100 CALM      30.28S
ROANOKE        PTCLDY    37  26  64 VRB3      30.26F
BLACKSBURG     PTCLDY    29  26  89 CALM      30.28F
DUBLIN*        PTCLDY    33  31  91 CALM      30.27R
MARION*        CLOUDY    37  30  74 S3        30.27F
HILLSVILLE*    MOCLDY    42  26  52 SW6       30.25S
RICHLANDS*     CLOUDY    42  23  46 CALM      30.26R
WISE*          CLOUDY    45  19  36 SW7       30.27R
ABINGDON*      CLOUDY    42  31  64 CALM      30.27R
$$

MDZ021>025-VAZ099-100-271100-
SOUTHERN MARYLAND AND THE DELMARVA PENINSULA

CITY           SKY/WX    TMP DP  RH WIND       PRES   REMARKS
PATUXENT RIVER PTCLDY    38  32  79 SW5       30.26R
BAY BRIDGE APT   N/A     36  36 100 CALM      30.27R
LEONARDTOWN    PTCLDY    37  34  87 CALM      30.28R
DOVER          PTCLDY    35  34  95 CALM      30.24R
GEORGETOWN     FOG       33  31  92 CALM      30.27R VSB 3/4
EASTON         PTCLDY    34  34 100 CALM      30.30R
CAMBRIDGE        N/A     34  32  93 CALM      30.26R VSB 3/4
SALISBURY      CLEAR     37  34  87 CALM      30.27R FOG
OCEAN CITY     CLEAR     40  37  89 W7        30.27R
WALLOPS ISLAND CLEAR     36  35  96 W3        30.28R
ACCOMACK*      CLEAR     36  34  93 SW3       30.27S FOG
$$

NCZ012>017-030>032-271100-
NORTH CENTRAL AND EASTERN NORTH CAROLINA

CITY           SKY/WX    TMP DP  RH WIND       PRES   REMARKS
ROANOKE RAPIDS SUNNY     32  32 100 CALM      30.27F
RALEIGH        PTCLDY    33  30  88 CALM      30.29R
ELIZABETH CITY CLEAR     38  34  85 CALM      30.28F
AHOSKIE*       CLEAR     32  31  95 CALM      30.28S
EDENTON*         N/A     34  33  96 CALM      30.28F
CURRITUCK*     CLEAR     36  35  96 CALM      30.29F
KILL DEVIL HLS CLEAR     44  42  93 SW3       30.27S
MANTEO         FOG       36  36 100 CALM      30.29S VSB 1
CAPE HATTERAS  CLEAR     38  38 100 N3        30.29F
TARBORO*       FOG       34  34  98 CALM      30.29S VSB 1/2
GOLDSBORO      FOG       32  32 100 CALM      30.28S VSB 3/4
WASHINGTON     CLEAR     34  32  94 CALM      30.29S
GREENVILLE       N/A     34  34 100 CALM      30.29F FOG
NEW BERN         N/A     34  31  88 CALM      30.30F VSB 1/4
WILMINGTON     CLEAR     36  34  92 CALM      30.30R
$$

VAZ048-271100-
ELSEWHERE

CITY           SKY/WX    TMP DP  RH WIND       PRES   REMARKS
HARRISBURG PA  MOCLDY    29  27  92 CALM      30.24S
BALTIMORE      MOCLDY    32  29  88 CALM      30.25R
ANNAPOLIS      MOCLDY    36  33  89 CALM      30.26R
ANDREWS AFB    MOCLDY    35  32  90 S6        30.25R
PHILADELPHIA   MOCLDY    34  31  88 CALM      30.25S
HENDERSON NC   PTCLDY    33  32  96 S6        30.26S
GREENSBORO     PTCLDY    35  31  85 SW7       30.26R
ROCKY MOUNT    CLEAR     31  30  96 CALM      30.28S
$$

VAZ100-271100-
MARINE

STATION/POSITION TIME  TEMP    WIND        PRES    WAVE   SWELL
                       AIR SEA DIR/SP/G            HT/PER HT/PER
                 (UTC) (F)     (DEG/KT/KT) (MB)    (FT/S) (FT/S)
CAPE MAY NJ      1000   41 46  270/  8/  9 1024.3R
LEWES DE         1000   38 44  250/  5/  7 1024.6R
15NM E FENWICK I 1000   45 45              1024.7R   2/12
OCEAN-CITY-INLET 1000   41 45  270/  4/  5 1024.3R
WACHAPREAGUE VA  1000   40 46  250/  3/  3 1025.0S
THOMAS POINT MD  1000   39 42  340/  4/  4 1026.1R
GOOSES REEF MD   1000   42     VRB  6/  6  1023.4R
COVE POINT MD    1000   43     160/  3/  3 1024.6R
SOLOMONS ISLAND  1000      43                N/A
BISHOPS HEAD MD  1000   43 44  200/  3/  4 1024.1F
PINEY POINT MD   1000          250/  2/  2   N/A
POTOMAC MD       1000   43     240/  2/  4 1023.9S
CAMBRIDGE MD     1000   38 42  190/  2/  3 1024.3F
LEWISETTA VA     1000   40 44     CALM     1024.5R
RAPPAHANNOCK LGT 1000          190/  8/  8 1025.4R
STINGRAY PT      1000   42     240/  4/  6 1025.3R
YORK RVR RNG VA  1000   43     260/  6/  6 1024.5R
YORKTOWN VA      1000   41 46   CALM  /  1 1024.9R
JAMESTOWN VA     1000   37      60/  2/  4   N/A
DOMINION TERM VA 1000   44     220/  5/  6 1025.0S
KIPTOPEKE VA     1000      50  220/  6/  7   N/A
CHES BAY BRIDGE  1000   45 45  210/  9/ 11 1024.7R
CAPE HENRY VA    1000   44     220/  9/ 11 1023.8R
CHESAPEAKE LGHT  0900   46     220/  9/ 10 1026.1F
WILLOUBY STN VA  1000   44     220/  9/ 10 1025.4R
S CRANEY ISL VA  1000          190/  4/  5 1025.0S
CAPE HENRY BUOY  1000      48                N/A     2/20   2/20
1ST LANDING BUOY 1000   45     220/  8/ 10 1024.6R
CAPE CHARLES BUO 1000      47                N/A     1/13   2/13
64NM E OF VA BCH 1000   51 52  260/  8/ 10 1025.2R   2/12   2/12
DUCK PIER NC     1000   47 51  260/  4/  5 1024.7R
44100 DUCK FRF   1000      50                N/A     2/12   2/12
44056 DUCK FRF   1000      50                N/A     2/18   2/18
OREGON INLET NC  1000   47 53  240/  1/  2 1025.4F
HATTERAS NC      1000   50 57  340/  2/  3 1025.9F
DIAMOND SHLS NC  1000   55                 1025.8S   2/ 8
CAPE LOOKOUT NC  0900   52     360/  7/  7 1025.5F
$$


USA.gov is the U.S. government's official web portal to all federal, state and local government web resources and services.